Newport, NC

12:18 PM EST on February 20, 2017 (GMT -0500)
Bogue McAlf

Weather History for KNJM - January, 2013

Change the Weather History Date:

Saturday, January 12, 2013

  Actual Average (KNKT) Record (KNKT)
Temperature  
Mean Temperature 58 °F -  
Max Temperature 66 °F 53 °F 75 °F (2013)
Min Temperature 51 °F 33 °F 24 °F (1997)
Degree Days  
Heating Degree Days 6    
Growing Degree Days 8 (Base 50)    
Moisture  
Dew Point 56 °F    
Average Humidity 96    
Maximum Humidity 100    
Minimum Humidity 76    
Precipitation  
Precipitation 0.01 in - - ()
Sea Level Pressure  
Sea Level Pressure 30.16 in    
Wind  
Wind Speed 2 mph (SW)    
Max Wind Speed 6 mph    
Max Gust Speed -    
Visibility 4 miles    
Events Fog    
Averages and records for this station are not official NWS values.
T = Trace of Precipitation, MM = Missing Value Source: NWS Daily Summary

Daily Weather History Graph

Daily Weather History Graph

Search for Another Location

Airport or City:

Trip Planner

Search our weather history database for the weather conditions in past years. The results will help you decide how hot, cold, wet, or windy it might be!

Date:

Astronomy

Jan. 12, 2013 Rise Set
Actual Time 7:15 AM EST 5:17 PM EST
Civil Twilight 6:47 AM EST 5:45 PM EST
Nautical Twilight 6:16 AM EST 6:16 PM EST
Astronomical Twilight 5:46 AM EST 6:46 PM EST
Moon 7:36 AM EST (1/12) 6:39 PM EST (1/12)
Length of Visible Light 10h 57m
Length of Day
10h 02m
New Moon, 1% of the Moon is Illuminated
Jan 12
New Moon
Jan 18
First Quarter
Jan 26
Full
Feb 3
Last Quarter
Feb 10
New

Hourly Weather History & Observations

Time (EST) Temp. Dew Point Humidity Pressure Visibility Wind Dir Wind Speed Gust Speed Precip Events Conditions
12:06 AM 55.4 °F 55.4 °F 100% 30.17 in 0.8 mi WSW 3.5 mph - N/A   Mist
12:18 AM 55.4 °F 55.4 °F 100% 30.17 in 0.8 mi SW 3.5 mph - N/A   Mist
12:24 AM 55.4 °F 55.4 °F 100% 30.17 in 1.0 mi SW 4.6 mph - N/A   Mist
12:32 AM 55.4 °F 55.4 °F 100% 30.17 in 3.0 mi SW 4.6 mph - N/A   Overcast
12:57 AM 55.9 °F 55.9 °F 100% 30.18 in 8.0 mi Calm Calm - N/A   Scattered Clouds
1:57 AM 55.9 °F 55.9 °F 100% 30.17 in 7.0 mi SW 3.5 mph - N/A   Clear
2:57 AM 55.9 °F 55.0 °F 97% 30.17 in 7.0 mi WSW 3.5 mph - N/A   Clear
3:57 AM 55.0 °F 54.0 °F 96% 30.17 in 6.0 mi Calm Calm - 0.01 in   Clear
4:57 AM 54.0 °F 54.0 °F 100% 30.16 in 2.5 mi Calm Calm - N/A   Partly Cloudy
5:28 AM 53.6 °F 53.6 °F 100% 30.15 in 0.5 mi Calm Calm - N/A Fog Fog
5:45 AM 53.6 °F 51.8 °F 94% 30.15 in 0.5 mi Calm Calm - N/A Fog Fog
5:57 AM 53.1 °F 52.0 °F 96% 30.17 in 0.5 mi Calm Calm - N/A Fog Fog
6:16 AM 51.8 °F 51.8 °F 100% 30.16 in 0.2 mi Calm Calm - N/A Fog Fog
6:26 AM 51.8 °F 51.8 °F 100% 30.16 in 0.8 mi Calm Calm - N/A   Mist
6:30 AM 51.8 °F 51.8 °F 100% 30.16 in 1.2 mi Calm Calm - N/A   Partly Cloudy
7:52 AM 51.8 °F 51.8 °F 100% 30.18 in 0.8 mi Calm Calm - N/A   Mist
7:57 AM 52.0 °F 52.0 °F 100% 30.19 in 1.2 mi Calm Calm - N/A   Mostly Cloudy
8:30 AM 55.4 °F 55.4 °F 100% 30.18 in 1.8 mi Calm Calm - N/A   Overcast
8:45 AM 55.4 °F 55.4 °F 100% 30.19 in 0.5 mi WSW 3.5 mph - N/A Fog Fog
8:50 AM 55.4 °F 55.4 °F 100% 30.19 in 0.2 mi Calm Calm - N/A Fog Fog
8:57 AM 55.9 °F 55.9 °F 100% 30.20 in 0.2 mi WSW 3.5 mph - N/A Fog Fog
9:19 AM 57.2 °F 55.4 °F 94% 30.19 in 0.5 mi SW 3.5 mph - N/A Fog Fog
9:32 AM 57.2 °F 57.2 °F 100% 30.19 in 2.0 mi SW 4.6 mph - N/A   Overcast
9:40 AM 57.2 °F 57.2 °F 100% 30.19 in 6.0 mi SW 4.6 mph - N/A   Overcast
9:57 AM 59.0 °F 57.9 °F 96% 30.20 in 8.0 mi SSW 3.5 mph - N/A   Overcast
10:57 AM 62.1 °F 60.1 °F 93% 30.19 in 9.0 mi SSE 3.5 mph - N/A   Overcast
11:57 AM 63.0 °F 59.0 °F 87% 30.17 in 10.0 mi Calm Calm - N/A   Overcast
12:57 PM 63.0 °F 59.0 °F 87% 30.15 in 10.0 mi SW 3.5 mph - N/A   Overcast
1:57 PM 64.0 °F 59.0 °F 84% 30.13 in 10.0 mi SSW 5.8 mph - N/A   Mostly Cloudy
2:57 PM 66.9 °F 59.0 °F 76% 30.14 in 10.0 mi SW 5.8 mph - N/A   Scattered Clouds
3:57 PM 66.0 °F 60.1 °F 81% 30.14 in 10.0 mi WSW 4.6 mph - N/A   Clear
4:57 PM 64.0 °F 59.0 °F 84% 30.14 in 10.0 mi Calm Calm - N/A   Clear
5:57 PM 60.1 °F 57.0 °F 90% 30.15 in 9.0 mi Calm Calm - N/A   Clear
6:57 PM 57.9 °F 55.0 °F 90% 30.15 in 6.0 mi Calm Calm - N/A   Clear
7:57 PM 55.9 °F 55.0 °F 97% 30.15 in 6.0 mi East 3.5 mph - N/A   Clear
8:57 PM 57.0 °F 55.9 °F 96% 30.14 in 3.0 mi East 3.5 mph - N/A   Clear
9:40 PM 55.4 °F 55.4 °F 100% 30.13 in 0.8 mi East 3.5 mph - N/A   Mist
9:51 PM 57.2 °F 55.4 °F 94% 30.13 in 1.2 mi Calm Calm - N/A   Partly Cloudy
9:57 PM 57.0 °F 55.9 °F 96% 30.14 in 2.5 mi Calm Calm - N/A   Partly Cloudy
10:03 PM 57.2 °F 55.4 °F 94% 30.13 in 1.0 mi Calm Calm - N/A   Mist
10:46 PM 55.4 °F 55.4 °F 100% 30.14 in 0.5 mi Calm Calm - N/A Fog Fog
11:57 PM 55.0 °F 55.0 °F 100% 30.15 in 0.2 mi Calm Calm - N/A Fog Fog